When you browse on this site, cookies collect data to enhance your experience and personalize the content and advertising you see.
Visit our Privacy Policy to learn more. By continuing to use the site, you agree to this use of cookies and data.
  • In Romania
  • List of Countries
  • For 7 days
  • Water Temperature
  • Satellite Maps
  • Weather Map
  • Weather Widgets
  • user-avatar
    Login

    Hourly Weather Erlykovo

    Today, 22 July, Monday

    Time Temperature Precipitation Wind Pressure Humidity
    00:00 +16°C° 0 mm 2 mps 737 mmHg 90%
    01:00 +16°C° 0 mm 2 mps 737 mmHg 90%
    02:00 +16°C° 0 mm 2 mps 737 mmHg 91%
    03:00 +15°C° 0 mm 2 mps 736 mmHg 92%
    04:00 +15°C° 0 mm 2 mps 736 mmHg 93%
    05:00 +16°C° 0 mm 2 mps 737 mmHg 92%
    06:00 +17°C° 0 mm 2 mps 737 mmHg 90%
    07:00 +18°C° 0 mm 3 mps 737 mmHg 89%
    08:00 +19°C° 0 mm 3 mps 737 mmHg 86%
    09:00 +20°C° 0 mm 3 mps 737 mmHg 82%
    10:00 +21°C° 0 mm 4 mps 737 mmHg 78%
    11:00 +22°C° 0.2 mm 4 mps 736 mmHg 76%
    12:00 +22°C° 0.2 mm 4 mps 736 mmHg 73%
    13:00 +23°C° 0.2 mm 4 mps 736 mmHg 70%
    14:00 +22°C° 0.3 mm 4 mps 736 mmHg 71%
    15:00 +22°C° 0.3 mm 4 mps 736 mmHg 72%
    16:00 +22°C° 0.3 mm 4 mps 736 mmHg 73%
    17:00 +22°C° 0.2 mm 3 mps 735 mmHg 77%
    18:00 +21°C° 0.2 mm 3 mps 735 mmHg 80%
    19:00 +20°C° 0.2 mm 2 mps 735 mmHg 84%
    20:00 +19°C° 0.5 mm 2 mps 735 mmHg 87%
    21:00 +18°C° 0.5 mm 2 mps 735 mmHg 90%
    22:00 +17°C° 0.5 mm 2 mps 735 mmHg 92%
    23:00 +16°C° 0 mm 2 mps 735 mmHg 93%

    Tomorrow, 23 July, Tuesday

    Time Temperature Precipitation Wind Pressure Humidity
    00:00 +15°C° 0 mm 2 mps 734 mmHg 93%
    01:00 +15°C° 0 mm 2 mps 734 mmHg 94%
    02:00 +14°C° 0 mm 2 mps 734 mmHg 94%
    03:00 +14°C° 0 mm 2 mps 735 mmHg 95%
    04:00 +14°C° 0 mm 2 mps 735 mmHg 95%
    05:00 +14°C° 0 mm 2 mps 735 mmHg 94%
    06:00 +14°C° 0 mm 3 mps 735 mmHg 93%
    07:00 +16°C° 0 mm 3 mps 735 mmHg 93%
    08:00 +17°C° 0 mm 3 mps 735 mmHg 88%
    09:00 +18°C° 0 mm 4 mps 735 mmHg 83%
    10:00 +20°C° 0 mm 4 mps 735 mmHg 78%
    11:00 +20°C° 0.1 mm 4 mps 736 mmHg 76%
    12:00 +21°C° 0.1 mm 5 mps 736 mmHg 73%
    13:00 +22°C° 0.1 mm 5 mps 736 mmHg 70%
    14:00 +22°C° 0.2 mm 5 mps 736 mmHg 71%
    15:00 +22°C° 0.2 mm 5 mps 736 mmHg 71%
    16:00 +22°C° 0.2 mm 5 mps 736 mmHg 71%
    17:00 +21°C° 0.2 mm 4 mps 736 mmHg 76%
    18:00 +21°C° 0.2 mm 4 mps 736 mmHg 80%
    19:00 +20°C° 0.2 mm 3 mps 736 mmHg 84%
    20:00 +19°C° 0 mm 3 mps 736 mmHg 87%
    21:00 +17°C° 0 mm 2 mps 736 mmHg 90%
    22:00 +16°C° 0 mm 2 mps 736 mmHg 93%
    23:00 +16°C° 0 mm 2 mps 737 mmHg 94%

    Day after tomorrow, 24 July, Wednesday

    Time Temperature Precipitation Wind Pressure Humidity
    00:00 +15°C° 0 mm 2 mps 737 mmHg 94%
    01:00 +15°C° 0 mm 2 mps 737 mmHg 94%
    02:00 +15°C° 0 mm 2 mps 737 mmHg 95%
    03:00 +14°C° 0 mm 1 mps 737 mmHg 95%
    04:00 +14°C° 0 mm 1 mps 737 mmHg 95%
    05:00 +15°C° 0 mm 1 mps 737 mmHg 93%
    06:00 +16°C° 0 mm 2 mps 737 mmHg 92%
    07:00 +17°C° 0 mm 2 mps 737 mmHg 90%
    08:00 +18°C° 0 mm 2 mps 738 mmHg 85%
    09:00 +20°C° 0 mm 2 mps 738 mmHg 80%
    10:00 +21°C° 0 mm 2 mps 738 mmHg 75%
    11:00 +23°C° 0 mm 2 mps 738 mmHg 73%
    12:00 +23°C° 0 mm 2 mps 738 mmHg 71%
    13:00 +24°C° 0 mm 2 mps 738 mmHg 69%
    14:00 +24°C° 0 mm 2 mps 738 mmHg 69%
    15:00 +24°C° 0 mm 3 mps 738 mmHg 69%
    16:00 +25°C° 0 mm 3 mps 738 mmHg 69%
    17:00 +24°C° 0.1 mm 3 mps 738 mmHg 74%
    18:00 +22°C° 0.1 mm 3 mps 738 mmHg 79%
    19:00 +23°C° 0.1 mm 2 mps 738 mmHg 84%
    20:00 +20°C° 0 mm 2 mps 738 mmHg 86%
    21:00 +19°C° 0 mm 2 mps 738 mmHg 89%
    22:00 +18°C° 0 mm 2 mps 738 mmHg 92%
    23:00 +18°C° 0 mm 1 mps 738 mmHg 92%

    25 July, Thursday

    Time Temperature Precipitation Wind Pressure Humidity
    00:00 +18°C° 0 mm 1 mps 738 mmHg 93%
    01:00 +16°C° 0 mm 1 mps 738 mmHg 94%
    02:00 +16°C° 0 mm 1 mps 738 mmHg 95%
    03:00 +16°C° 0 mm 1 mps 738 mmHg 96%
    04:00 +15°C° 0 mm 1 mps 738 mmHg 96%
    05:00 +16°C° 0 mm 2 mps 738 mmHg 95%
    06:00 +17°C° 0 mm 2 mps 738 mmHg 94%
    07:00 +18°C° 0 mm 3 mps 739 mmHg 93%
    08:00 +20°C° 0 mm 3 mps 739 mmHg 87%
    09:00 +21°C° 0 mm 3 mps 739 mmHg 82%
    10:00 +24°C° 0 mm 3 mps 739 mmHg 77%
    11:00 +24°C° 0 mm 3 mps 739 mmHg 73%
    12:00 +25°C° 0 mm 3 mps 739 mmHg 70%
    13:00 +26°C° 0 mm 3 mps 739 mmHg 67%
    14:00 +26°C° 0.1 mm 3 mps 739 mmHg 67%
    15:00 +26°C° 0.1 mm 3 mps 739 mmHg 67%
    16:00 +26°C° 0.1 mm 3 mps 738 mmHg 68%
    17:00 +25°C° 0.2 mm 3 mps 738 mmHg 72%
    18:00 +25°C° 0.2 mm 3 mps 738 mmHg 77%
    19:00 +24°C° 0.2 mm 2 mps 738 mmHg 81%
    20:00 +23°C° 0 mm 2 mps 738 mmHg 83%
    21:00 +20°C° 0 mm 2 mps 738 mmHg 85%
    22:00 +19°C° 0 mm 2 mps 738 mmHg 87%
    23:00 +19°C° 0 mm 2 mps 738 mmHg 87%

    26 July, Friday

    Time Temperature Precipitation Wind Pressure Humidity
    00:00 +18°C° 0 mm 2 mps 738 mmHg 87%
    01:00 +18°C° 0 mm 2 mps 738 mmHg 87%
    02:00 +17°C° 0 mm 2 mps 738 mmHg 87%
    03:00 +17°C° 0 mm 2 mps 738 mmHg 87%
    04:00 +17°C° 0 mm 2 mps 738 mmHg 86%
    05:00 +18°C° 0 mm 2 mps 738 mmHg 85%
    06:00 +20°C° 0 mm 1 mps 738 mmHg 83%
    07:00 +20°C° 0 mm 1 mps 739 mmHg 81%
    08:00 +21°C° 0 mm 2 mps 739 mmHg 76%
    09:00 +23°C° 0 mm 2 mps 739 mmHg 70%
    10:00 +25°C° 0 mm 2 mps 739 mmHg 64%
    11:00 +25°C° 0 mm 2 mps 739 mmHg 62%
    12:00 +26°C° 0 mm 2 mps 738 mmHg 59%
    13:00 +27°C° 0 mm 1 mps 738 mmHg 57%
    14:00 +27°C° 0 mm 1 mps 738 mmHg 57%
    15:00 +27°C° 0 mm 2 mps 738 mmHg 57%
    16:00 +27°C° 0 mm 2 mps 737 mmHg 57%
    17:00 +26°C° 0.2 mm 2 mps 737 mmHg 64%
    18:00 +25°C° 0.2 mm 2 mps 737 mmHg 70%
    19:00 +24°C° 0.2 mm 2 mps 737 mmHg 77%
    20:00 +23°C° 0 mm 1 mps 737 mmHg 79%
    21:00 +21°C° 0 mm 1 mps 737 mmHg 82%
    22:00 +20°C° 0 mm 1 mps 736 mmHg 84%
    23:00 +19°C° 0 mm 1 mps 736 mmHg 85%

    27 July, Saturday

    Time Temperature Precipitation Wind Pressure Humidity
    00:00 +19°C° 0 mm 1 mps 736 mmHg 86%
    01:00 +19°C° 0 mm 1 mps 736 mmHg 86%
    02:00 +18°C° 0 mm 1 mps 736 mmHg 87%
    03:00 +18°C° 0 mm 1 mps 736 mmHg 87%
    04:00 +16°C° 0 mm 1 mps 736 mmHg 88%
    05:00 +18°C° 0 mm 1 mps 736 mmHg 85%
    06:00 +19°C° 0 mm 1 mps 736 mmHg 82%
    07:00 +20°C° 0 mm 1 mps 736 mmHg 79%
    08:00 +22°C° 0 mm 1 mps 735 mmHg 73%
    09:00 +23°C° 0 mm 1 mps 735 mmHg 66%
    10:00 +24°C° 0 mm 2 mps 735 mmHg 60%
    11:00 +25°C° 0 mm 2 mps 735 mmHg 57%
    12:00 +26°C° 0 mm 2 mps 735 mmHg 54%
    13:00 +26°C° 0 mm 2 mps 734 mmHg 51%
    14:00 +27°C° 0 mm 1 mps 734 mmHg 50%
    15:00 +27°C° 0 mm 1 mps 734 mmHg 50%
    16:00 +27°C° 0 mm 1 mps 733 mmHg 49%
    17:00 +26°C° 0 mm 1 mps 733 mmHg 55%
    18:00 +25°C° 0 mm 1 mps 732 mmHg 61%
    19:00 +24°C° 0 mm 1 mps 732 mmHg 67%
    20:00 +23°C° 0 mm 1 mps 732 mmHg 70%
    21:00 +22°C° 0 mm 1 mps 731 mmHg 72%
    22:00 +19°C° 0 mm 2 mps 731 mmHg 75%
    23:00 +20°C° 0 mm 1 mps 730 mmHg 76%
    Show more